Satellite: RAX-2
Catalog number: 37853
Epoch time: 12242.93037434
Element set: 0284
Inclination: 101.7073 deg
RA of node: 316.7042 deg
Eccentricity: 0.0245732
Arg of perigee: 140.6567 deg
Mean anomaly: 221.2771 deg
Mean motion: 14.80501486 rev/day
Decay rate: 5.550e-05 rev/day^2
Epoch rev: 04531
Checksum: 276
Satellite: AUBIESAT
Catalog number: 37854
Epoch time: 12242.93262894
Element set: 0279
Inclination: 101.7114 deg
RA of node: 317.0564 deg
Eccentricity: 0.0246628
Arg of perigee: 139.8203 deg
Mean anomaly: 222.1527 deg
Mean motion: 14.80939734 rev/day
Decay rate: 6.183e-05 rev/day^2
Epoch rev: 04530
Checksum: 301
Satellite: HRBE
Catalog number: 37855
Epoch time: 12242.88649180
Element set: 0284
Inclination: 101.7096 deg
RA of node: 316.9188 deg
Eccentricity: 0.0247095
Arg of perigee: 140.1732 deg
Mean anomaly: 221.7883 deg
Mean motion: 14.80762158 rev/day
Decay rate: 5.537e-05 rev/day^2
Epoch rev: 04529
Checksum: 323
Satellite: RS-39
Catalog number: 38051
Epoch time: 12243.83293256
Element set: 656
Inclination: 051.6382 deg
RA of node: 163.8408 deg
Eccentricity: 0.0012138
Arg of perigee: 310.0470 deg
Mean anomaly: 116.4304 deg
Mean motion: 15.25401498 rev/day
Decay rate: 6.677e-05 rev/day^2
Epoch rev: 3336
Checksum: 289
Satellite: E-STAR
Catalog number: 38079
Epoch time: 12243.70875091
Element set: 468
Inclination: 069.4813 deg
RA of node: 144.8086 deg
Eccentricity: 0.0724004
Arg of perigee: 153.7464 deg
Mean anomaly: 210.2375 deg
Mean motion: 14.19175023 rev/day
Decay rate: 3.1219e-04 rev/day^2
Epoch rev: 2814
Checksum: 295
Satellite: GOLIAT
Catalog number: 38085
Epoch time: 12243.68326583
Element set: 437
Inclination: 069.4852 deg
RA of node: 145.4003 deg
Eccentricity: 0.0730509
Arg of perigee: 154.2104 deg
Mean anomaly: 209.7534 deg
Mean motion: 14.18105863 rev/day
Decay rate: 3.1203e-04 rev/day^2
Epoch rev: 2812
Checksum: 279
Satellite: HORYU-2
Catalog number: 38340
Epoch time: 12242.88211159
Element set: 118
Inclination: 098.1781 deg
RA of node: 182.7949 deg
Eccentricity: 0.0014042
Arg of perigee: 096.3926 deg
Mean anomaly: 263.8900 deg
Mean motion: 14.70115456 rev/day
Decay rate: 9.41e-06 rev/day^2
Epoch rev: 1530
Checksum: 291
Satellite: RS-40
Catalog number: 38736
Epoch time: 12243.70058713
Element set: 35
Inclination: 082.4816 deg
RA of node: 336.2415 deg
Eccentricity: 0.0017785
Arg of perigee: 239.6149 deg
Mean anomaly: 120.3173 deg
Mean motion: 12.42646187 rev/day
Decay rate: 1.0e-07 rev/day^2
Epoch rev: 416
Checksum: 278
/EX
More information about the Keps
mailing list